sat.trackr.live / text

‹ back to catalog

STARLINK-5733

NORAD 56925 · 2023-083BB

PAYLOAD ACTIVE UNKNOWN

§ Identity

Operator
Country
US
Launch date
2023-06-12
Launch site
AFETR
Launch vehicle
Mass (kg)
RCS (m²)

Purposes: comms

External: N2YO · Heavens-Above · Gunter

§ Orbital elements

Epoch: 2026-09-20T17:04:21.078048Z

Period
94.27 min
Inclination
43.0031°
Eccentricity
0.0001149
Mean motion
15.27575732 rev/d
Perigee alt
482.3 km
Apogee alt
483.9 km
Semi-major
6,861.2 km
B*
1.7407e-5
RAAN
49.3408°
Arg perigee
306.8970°
Mean anomaly
53.1777°
Rev number
18,162

§ Raw data

STARLINK-57331 56925U 23083BB  26263.71135507  .00000217  00000+0  17407-4 0  99932 56925  43.0031  49.3408 0001149 306.8970  53.1777 15.27575732181628

JSON: /api/v1/satellites/56925 · /tle

For live sub-satellite position, see the globe view (requires WebGL).

§ Visibility from observer

Set your observer location to see the next 7 days of passes ≥ 10°. The values pass through the URL so the page stays shareable.

No JS? Fill the form by hand. The geolocation button needs JavaScript.